Warning: Javascript must be enabled to use all the features on this page!


Page Loading - Please Wait...

Click to hideNews Bulletins

Peak Streamflow for the Nation

USGS 11399500 NF FEATHER R NR PRATTVILLE CA

Plumas County, California
Hydrologic Unit Code 18020121
Latitude  40°10'06", Longitude 121°05'31" NAD27
Drainage area 493  square miles
Gage datum 4,390.09 feet above NGVD29
Output formats
Table
Graph
Tab-separated file
peakfq (watstore) format
Reselect output format
Water
Year
Date Gage
Height
(feet)
Stream-
flow
(cfs)
1907 1907-03-19 16.20 10,000
1914 1914-05-31   2,0801
1937 1937-01-11 4.36 7956
1938 1937-12-23 7.20 2,5606
1939 1938-10-24 5.72 1,5806
1940 1940-04-01 6.85 2,6206
1941 1941-05-22 6.95 2,7106
1942 1942-05-17 6.92 2,6906
1943 1943-04-18   2,6502,6
1944 1944-07-29 3.91 5716
1945 1945-09-01 3.60 4406
1946 1946-01-11 6.05 1,9506
1947 1947-07-24 4.72 9826
1948 1948-06-15 4.82 1,0306
1949 1949-02-06 4.64 9226
1950 1950-09-07 3.41 3646
1951 1950-12-19 6.19 2,0506
1952 1952-02-05 6.74 2,5506
1953 1952-11-10 5.01 1,2406
1954 1953-11-06 5.04 1,2606
1955 1954-11-25 5.48 1,5706
1956 1956-06-01 5.61 1,6606
1957 1956-11-07 4.91 1,1706
1958 1958-04-13 6.43 2,3006
1959 1958-11-20 4.35 8076
1960 1960-05-01 1.98 46.06
1962 1961-10-08   36.01,6
1963 1962-10-13   42.01,6
1964 1963-10-01   36.01,6
1965 1964-12-22   42.01,6
1966 1966-05-21   37.01,6
1967 1967-09-23   40.01,6
1968 1968-04-03   52.01,6
1969 1969-03-22   81.01,6
1970 1970-01-29   66.01,6
1971 1971-04-22   48.01,6
1972 1972-01-18   1321,6
1973 1973-02-01   1361,6
1974 1974-04-23   3391,6
1975 1975-04-23   57.01,6
1976 1976-05-24   58.01,6
1977 1977-03-25   47.01,6
1978 1978-03-16   78.01,6
1979 1979-01-30   58.01,6
1980 1980-01-19   47.01,6
1981 1980-10-12   37.01,6
1982 1981-10-13   4821,6
1983 1983-04-02   8031,6
1984 1984-06-22   7471,6
1985 1985-09-08 2.50 39.06
1986 1986-02-18 2.68 52.06
1987 1987-03-12 2.56 41.06
1988 1987-12-21 4.53 4536
1989 1988-12-21 5.40 1,1006
1990 1989-10-12 2.65 46.06
1991 1991-03-04 2.56 40.06
1992 1992-01-08 2.52 38.06
1993 1993-03-16 4.19 4216
1994 1994-03-22 2.52 38.06
1995 1995-05-04 4.81 7356
1996 1996-05-25 4.80 7306
1997 1997-01-05 6.67 2,1606
1998 1998-06-30 2.65 47.06
1999 1999-04-22 2.57 41.06
2000 2000-02-14 2.50 39.06
2001 2001-05-12 4.77 7146
2002 2001-10-18 3.46 1976
2003 2003-02-11 4.69 6676
2004 2003-12-02 2.78 58.06
2005 2005-09-28 2.88 73.06
2006 2006-01-27 6.03 1,6306
2007 2007-03-26 2.54 41.06
2008 2008-04-14 2.55 41.06
2009 2009-05-04 2.56 41.06
2010 2010-05-24 2.65 45.06
2011 2011-06-28 2.64 44.06
2012 2012-08-05 4.05 3796
2013 2012-11-06 3.04 96.06
2014 2014-02-09 2.692 47.06
2015 2015-07-09 2.74 48.06
2016 2016-08-01 2.77 52.06
2017 2017-03-09 6.69 2,1806
2018 2017-12-18 4.35 5096
2019 2019-05-14 5.67 1,2906
?
  Peak Gage-Height Qualification Codes.
?
  Peak Streamflow Qualification Codes.